| time (UTC) | temp F | wind direction | speed MPH | gust MPH | rain 1hr in | rain 24hr in | rain mn in | humidity % | barometer mb |
| 20260506001521 | 51 | 210 | 0.0 | 2.0 | 0.00 | 0.18 | 0.00 | 87 | 1006.6 |
| 20260506000008 | 51 | 210 | 0.0 | 0.0 | 0.00 | 0.18 | 0.00 | 87 | 1006.6 |
| 20260505234537 | 52 | 210 | 0.0 | 0.0 | 0.00 | 0.18 | 0.00 | 87 | 1006.7 |
| 20260505233008 | 52 | 210 | 0.0 | 0.0 | 0.00 | 0.18 | 0.00 | 87 | 1006.8 |
| 20260505231522 | 53 | 210 | 0.0 | 0.0 | 0.00 | 0.18 | 0.00 | 86 | 1006.8 |
| 20260505230011 | 53 | 210 | 0.0 | 0.0 | 0.00 | 0.18 | 0.00 | 87 | 1006.9 |
| 20260505224534 | 53 | 210 | 0.0 | 3.0 | 0.00 | 0.18 | 0.00 | 86 | 1007.0 |
| 20260505223015 | 53 | 201 | 1.0 | 5.0 | 0.00 | 0.18 | 0.00 | 86 | 1007.0 |
| 20260505221521 | 54 | 199 | 0.0 | 3.0 | 0.00 | 0.18 | 0.00 | 87 | 1007.0 |
| 20260505220008 | 54 | 167 | 0.0 | 5.0 | 0.01 | 0.18 | 0.00 | 86 | 1007.1 |
| 20260505214523 | 54 | 192 | 0.0 | 4.0 | 0.14 | 0.18 | 0.18 | 89 | 1007.2 |
| 20260505213010 | 54 | 170 | 0.0 | 5.0 | 0.16 | 0.18 | 0.18 | 86 | 1007.2 |
| 20260505211603 | 54 | 190 | 0.0 | 3.0 | 0.16 | 0.18 | 0.18 | 85 | 1007.2 |
| 20260505210012 | 54 | 185 | 0.0 | 17.0 | 0.17 | 0.17 | 0.17 | 83 | 1007.1 |
| 20260505204502 | 55 | 226 | 0.0 | 3.0 | 0.04 | 0.04 | 0.04 | 82 | 1006.9 |
| 20260505203014 | 56 | 197 | 0.0 | 3.0 | 0.02 | 0.02 | 0.02 | 80 | 1006.9 |
| 20260505201502 | 58 | 233 | 0.0 | 4.0 | 0.02 | 0.02 | 0.02 | 74 | 1006.5 |
| 20260505200011 | 59 | 222 | 0.0 | 4.0 | 0.00 | 0.00 | 0.00 | 69 | 1006.3 |
| 20260505194619 | 59 | 236 | 1.0 | 6.0 | 0.00 | 0.00 | 0.00 | 68 | 1005.8 |
| 20260505193016 | 59 | 263 | 1.0 | 3.0 | 0.00 | 0.00 | 0.00 | 70 | 1005.4 |
| 20260505191503 | 60 | 205 | 0.0 | 1.0 | 0.00 | 0.00 | 0.00 | 67 | 1004.7 |
| 20260505190013 | 60 | 302 | 0.0 | 1.0 | 0.00 | 0.00 | 0.00 | 65 | 1004.7 |
| 20260505184505 | 61 | 304 | 0.0 | 0.0 | 0.00 | 0.00 | 0.00 | 64 | 1004.4 |
| 20260505183018 | 61 | 304 | 0.0 | 4.0 | 0.00 | 0.00 | 0.00 | 64 | 1004.2 |
| 20260505181506 | 61 | 324 | 3.0 | 6.0 | 0.00 | 0.00 | 0.00 | 63 | 1004.1 |
| 20260505180015 | 62 | 322 | 3.0 | 10.0 | 0.00 | 0.00 | 0.00 | 61 | 1004.2 |
| 20260505174506 | 62 | 336 | 4.0 | 7.0 | 0.00 | 0.00 | 0.00 | 60 | 1004.2 |
| 20260505173017 | 63 | 300 | 4.0 | 8.0 | 0.00 | 0.00 | 0.00 | 61 | 1004.0 |
| 20260505171507 | 63 | 296 | 3.0 | 6.0 | 0.00 | 0.00 | 0.00 | 64 | 1004.0 |
| 20260505170021 | 63 | 338 | 3.0 | 9.0 | 0.00 | 0.00 | 0.00 | 64 | 1003.8 |
| 20260505164507 | 64 | 317 | 4.0 | 7.0 | 0.00 | 0.00 | 0.00 | 66 | 1003.8 |
| 20260505163021 | 64 | 323 | 3.0 | 7.0 | 0.00 | 0.00 | 0.00 | 67 | 1003.8 |
| 20260505161509 | 64 | 346 | 2.0 | 8.0 | 0.00 | 0.00 | 0.00 | 66 | 1003.9 |
| 20260505153017 | 65 | 331 | 1.0 | 6.0 | 0.00 | 0.00 | 0.00 | 61 | 1003.8 |
| 20260505151505 | 66 | 321 | 1.0 | 7.0 | 0.00 | 0.00 | 0.00 | 56 | 1004.0 |
| 20260505124538 | 71 | 279 | 0.0 | 6.0 | 0.00 | 0.00 | 0.00 | 39 | 1003.5 |
| 20260505123044 | 72 | 305 | 3.0 | 8.0 | 0.00 | 0.00 | 0.00 | 39 | 1003.6 |
| 20260505121541 | 72 | 355 | 0.0 | 7.0 | 0.00 | 0.00 | 0.00 | 40 | 1003.6 |
| 20260505120014 | 72 | 313 | 0.0 | 0.0 | 0.00 | 0.00 | 0.00 | 39 | 1003.5 |
| 20260505114526 | 73 | 304 | 0.0 | 0.0 | 0.00 | 0.00 | 0.00 | 38 | 1003.6 |
| 20260505113015 | 72 | 49 | 0.0 | 0.0 | 0.00 | 0.00 | 0.00 | 38 | 1003.7 |
| 20260505111538 | 75 | 313 | 0.0 | 0.0 | 0.00 | 0.00 | 0.00 | 37 | 1003.8 |
| 20260505101530 | 72 | 321 | 0.0 | 0.0 | 0.00 | 0.00 | 0.00 | 44 | 1004.4 |
| 20260505100032 | 69 | 324 | 0.0 | 0.0 | 0.00 | 0.00 | 0.00 | 47 | 1004.6 |
| 20260505094533 | 71 | 324 | 0.0 | 0.0 | 0.00 | 0.00 | 0.00 | 46 | 1004.9 |
| 20260505093027 | 72 | 5 | 0.0 | 0.0 | 0.00 | 0.00 | 0.00 | 45 | 1005.0 |
| 20260505091544 | 69 | 192 | 0.0 | 0.0 | 0.00 | 0.00 | 0.00 | 47 | 1005.2 |
| 20260505090021 | 69 | 238 | 0.0 | 0.0 | 0.00 | 0.00 | 0.00 | 50 | 1005.5 |
| 20260505084525 | 69 | 113 | 0.0 | 0.0 | 0.00 | 0.00 | 0.00 | 52 | 1005.6 |
| 20260505083041 | 69 | 119 | 0.0 | 0.0 | 0.00 | 0.00 | 0.00 | 53 | 1005.7 |
| 20260505081616 | 67 | 272 | 0.0 | 0.0 | 0.00 | 0.00 | 0.00 | 57 | 1005.9 |
| 20260505080029 | 65 | 91 | 0.0 | 0.0 | 0.00 | 0.00 | 0.00 | 63 | 1006.0 |
| 20260505074517 | 64 | 241 | 0.0 | 0.0 | 0.00 | 0.00 | 0.00 | 65 | 1006.2 |
| 20260505073026 | 62 | 224 | 0.0 | 0.0 | 0.00 | 0.00 | 0.00 | 69 | 1006.5 |
| 20260505071616 | 60 | 217 | 0.0 | 0.0 | 0.00 | 0.00 | 0.00 | 71 | 1006.6 |
| 20260505070025 | 59 | 286 | 0.0 | 0.0 | 0.00 | 0.00 | 0.00 | 73 | 1006.6 |
| 20260505064516 | 59 | 197 | 0.0 | 0.0 | 0.00 | 0.00 | 0.00 | 74 | 1006.5 |
| 20260505063036 | 57 | 256 | 0.0 | 0.0 | 0.00 | 0.00 | 0.00 | 77 | 1006.6 |
| 20260505061524 | 56 | 250 | 0.0 | 0.0 | 0.00 | 0.00 | 0.00 | 78 | 1006.7 |
| 20260505060032 | 55 | 257 | 0.0 | 0.0 | 0.00 | 0.00 | 0.00 | 80 | 1006.7 |
| 20260505054524 | 54 | 255 | 0.0 | 0.0 | 0.00 | 0.00 | 0.00 | 83 | 1006.7 |
| 20260505053026 | 53 | 252 | 0.0 | 1.0 | 0.00 | 0.00 | 0.00 | 85 | 1006.9 |
| 20260505041612 | 47 | 252 | 0.0 | 0.0 | 0.00 | 0.00 | 0.00 | 85 | 1006.9 |
| 20260505040019 | 47 | 252 | 0.0 | 0.0 | 0.00 | 0.00 | 0.00 | 84 | 1006.8 |
| 20260505034543 | 48 | 252 | 0.0 | 0.0 | 0.00 | 0.00 | 0.00 | 85 | 1006.9 |
| 20260505033139 | 48 | 252 | 0.0 | 0.0 | 0.00 | 0.00 | 0.00 | 84 | 1006.9 |
| 20260505031544 | 48 | 252 | 0.0 | 0.0 | 0.00 | 0.00 | 0.00 | 84 | 1007.0 |
| 20260505030051 | 48 | 252 | 0.0 | 0.0 | 0.00 | 0.00 | 0.00 | 84 | 1007.1 |
| 20260505024505 | 49 | 252 | 0.0 | 0.0 | 0.00 | 0.00 | 0.00 | 83 | 1007.2 |
| 20260505023017 | 50 | 252 | 0.0 | 0.0 | 0.00 | 0.00 | 0.00 | 83 | 1007.3 |
| 20260505021553 | 50 | 252 | 0.0 | 0.0 | 0.00 | 0.00 | 0.00 | 83 | 1007.5 |
| 20260505020134 | 51 | 252 | 0.0 | 0.0 | 0.00 | 0.00 | 0.00 | 82 | 1007.6 |
| 20260505014545 | 52 | 252 | 0.0 | 0.0 | 0.00 | 0.00 | 0.00 | 81 | 1007.6 |
| 20260505013051 | 53 | 252 | 0.0 | 0.0 | 0.00 | 0.00 | 0.00 | 82 | 1007.6 |
| 20260505011509 | 53 | 252 | 0.0 | 0.0 | 0.00 | 0.00 | 0.00 | 81 | 1007.7 |
| 20260505010009 | 54 | 252 | 0.0 | 0.0 | 0.00 | 0.00 | 0.00 | 81 | 1007.7 |
| 20260505004535 | 54 | 252 | 0.0 | 3.0 | 0.00 | 0.00 | 0.00 | 80 | 1007.8 |
| 20260505003053 | 54 | 252 | 0.0 | 2.0 | 0.00 | 0.00 | 0.00 | 79 | 1008.0 |